GEFSNE_500_meanwind_132.txt.gz
Wind_Speed
16 16 16 16 16 16 16 16 17 17 17 18 18 18 19 19 20 20 20 20 21 21 21 21 22 22 22 22 22 22 22 22 23 23 23 23 23 24
19 19 19 19 19 19 19 20 20 20 21 21 22 22 22 23 23 24 24 24 24 24 24 25 25 25 25 25 25 25 25 25 25 25 25 25 25 25
21 21 21 22 22 23 23 23 23 24 25 25 26 26 26 26 27 27 28 28 28 28 28 28 28 28 28 29 28 28 28 28 28 28 28 28 28 28
23 23 24 24 25 26 26 27 27 27 28 28 29 30 31 31 31 31 32 32 32 32 32 32 32 32 32 32 32 31 31 31 31 31 31 31 31 31
25 26 27 27 28 28 29 30 30 31 31 32 33 34 34 34 35 35 35 35 35 35 35 35 35 36 35 35 35 35 34 34 34 34 34 34 34 34
28 29 29 30 31 32 32 33 33 33 34 35 36 37 37 37 37 37 38 38 38 39 38 38 38 39 38 38 38 37 37 37 37 37 37 37 37 37
31 32 32 33 34 35 35 36 36 37 37 38 39 39 40 40 40 40 40 40 40 41 41 41 41 41 41 41 40 40 41 41 40 40 40 40 40 40
33 34 35 36 37 37 38 38 39 40 40 41 41 42 42 43 43 43 43 43 42 43 43 42 43 43 44 44 44 43 44 44 44 43 43 43 42 42
35 37 37 38 39 39 39 40 42 43 43 43 44 44 45 45 46 46 46 46 45 45 46 45 46 46 47 47 47 47 47 47 47 47 46 45 45 45
37 38 39 40 40 41 41 42 42 43 44 45 46 46 47 47 48 48 48 48 48 48 49 49 49 49 49 49 50 50 51 51 51 50 50 49 49 48
39 40 41 42 43 43 44 43 43 44 45 46 46 47 47 49 50 51 51 52 51 51 52 53 53 53 53 53 53 52 52 53 53 53 53 53 52 52
40 41 42 43 44 44 45 45 45 46 47 47 48 49 50 51 51 52 53 54 54 53 54 54 54 55 55 54 54 55 55 55 55 55 55 55 55 55
41 42 43 43 44 44 45 46 47 48 49 50 50 51 52 52 54 54 54 55 55 55 56 56 56 57 57 57 56 56 56 56 55 55 55 55 55 56
43 44 45 45 46 46 48 49 50 51 52 52 53 53 53 54 55 55 55 55 55 56 57 58 58 57 57 57 56 55 55 55 55 55 55 55 55 55
44 45 46 48 49 50 50 51 52 53 54 54 54 54 55 56 56 56 56 56 56 57 57 57 57 58 58 57 57 56 56 55 55 55 55 55 55 55
47 48 50 51 51 52 52 53 53 54 54 54 55 55 56 57 58 58 58 58 58 57 57 57 57 57 57 57 57 56 56 55 55 54 54 53 54 54
49 50 51 52 52 53 53 53 54 54 55 55 55 55 55 57 57 58 58 57 57 56 56 56 56 56 55 56 55 55 55 54 53 53 53 52 51 51
50 51 51 52 52 53 53 54 54 55 55 56 56 56 56 56 56 56 56 55 55 54 54 54 54 55 54 53 52 52 51 51 51 51 50 49 48 47
50 50 51 51 52 52 53 53 54 55 55 55 55 55 55 54 55 55 54 54 53 52 52 51 51 50 50 49 48 49 48 48 48 47 46 46 45 44
50 50 50 51 51 51 51 52 52 52 52 52 52 51 51 51 51 51 50 50 49 48 47 46 46 45 45 44 43 43 44 44 44 43 43 42 41 41
49 49 49 49 49 49 50 50 50 50 50 50 49 49 49 49 48 46 45 43 42 41 40 40 40 40 40 40 40 39 39 39 39 39 38 38 38 38
45 45 46 47 47 47 47 47 47 47 47 46 46 45 45 44 43 41 40 39 38 37 37 36 36 36 36 36 36 35 35 34 34 34 34 34 34 33
42 43 43 43 43 44 44 44 44 43 42 42 41 41 40 40 39 38 37 36 35 35 34 33 33 32 32 32 32 31 30 29 29 29 28 28 28 27

GEFSNE_500_meanwind_138.txt.gz
Wind_Speed
15 15 15 15 14 15 15 16 16 16 16 16 17 17 17 18 18 18 19 20 20 20 21 21 21 21 22 22 22 22 22 22 22 22 22 22 22 22
16 16 16 16 17 17 18 18 19 19 19 20 20 20 21 22 22 22 22 23 24 24 25 25 25 25 25 25 25 25 25 25 25 25 25 25 25 25
18 18 18 18 19 20 20 21 21 22 23 23 24 24 25 25 25 26 26 27 27 28 28 29 29 28 29 29 29 29 29 29 29 29 29 29 28 28
20 20 20 21 21 22 22 23 24 24 25 26 27 28 28 29 29 29 30 30 30 30 31 30 31 31 31 31 32 32 32 32 32 32 32 31 31 31
21 22 22 23 23 24 25 26 26 27 28 29 30 31 31 32 32 33 34 34 34 33 33 34 34 34 34 34 34 34 34 34 34 34 34 34 33 33
22 23 23 24 25 26 27 28 29 30 31 32 33 34 35 35 36 36 36 36 37 38 37 37 36 36 36 37 37 37 37 37 37 37 37 37 36 35
24 25 26 27 28 29 30 31 32 33 34 35 35 36 37 38 38 39 39 39 39 40 40 40 39 39 39 40 40 40 40 40 40 40 40 40 39 39
25 27 29 30 31 32 33 33 34 36 37 38 39 39 39 40 40 40 40 41 40 41 42 42 42 42 42 42 42 42 43 43 43 43 44 43 43 43
27 29 31 32 33 33 34 35 36 37 39 40 39 40 41 42 43 43 43 43 43 43 44 43 44 45 45 45 45 45 45 46 46 47 47 48 47 47
30 31 33 33 34 34 35 36 37 38 40 41 41 42 43 44 45 46 45 46 45 44 46 46 46 47 47 48 48 48 48 48 49 49 49 49 49 49
31 32 33 34 35 36 37 38 39 40 41 42 43 42 43 44 45 46 47 47 48 48 49 50 49 49 49 49 50 50 50 49 49 50 50 50 50 50
34 35 35 36 37 38 39 40 41 41 42 43 43 44 44 45 47 48 49 50 51 51 51 52 52 52 51 50 51 52 51 51 51 50 50 50 51 52
37 37 38 39 39 41 42 43 43 44 45 46 47 47 48 49 50 51 52 53 53 53 53 54 54 53 54 52 52 52 52 52 52 52 52 51 52 52
37 38 39 40 42 43 44 45 46 48 48 49 50 50 51 52 53 53 53 53 53 54 54 55 55 54 55 54 53 53 53 53 53 53 53 53 53 52
39 40 41 43 44 45 46 47 48 49 50 52 53 54 54 54 54 54 53 54 53 53 54 54 55 54 54 53 53 52 52 51 51 51 51 51 51 51
41 42 44 45 46 47 48 49 50 51 52 53 53 54 54 54 54 55 55 54 54 53 53 54 54 53 52 51 51 50 49 48 48 49 49 48 48 49
43 44 46 47 48 49 50 51 51 52 52 52 52 52 53 53 53 53 53 54 54 53 53 52 52 51 50 49 47 47 46 46 46 46 47 46 46 46
46 46 47 48 49 50 51 51 52 52 52 52 52 52 51 51 51 52 52 52 51 51 50 49 49 48 46 44 45 44 43 43 43 43 43 43 42 43
47 47 48 49 50 51 51 51 51 51 51 51 51 51 50 50 49 49 50 49 49 49 48 47 46 45 43 41 41 41 42 41 40 40 40 40 39 39
47 48 48 48 49 48 48 49 48 48 49 49 49 47 47 47 47 47 48 47 47 46 45 44 43 42 40 39 38 37 38 38 37 36 36 36 36 36
45 45 45 45 45 45 46 45 45 46 46 46 46 45 45 45 45 46 45 45 44 43 42 40 39 39 38 37 35 34 35 36 36 34 34 34 34 33
42 42 42 43 43 43 43 44 44 45 44 44 43 43 43 42 42 41 40 40 40 38 37 36 36 35 34 34 33 33 33 34 34 33 32 31 30 29
41 41 41 41 42 42 41 41 42 42 42 40 39 39 38 38 37 37 36 36 35 34 34 32 32 31 31 31 31 31 31 30 30 29 28 28 27 27

GEFSNE_500_meanwind_144.txt.gz
Wind_Speed
17 16 17 16 16 15 15 15 15 15 16 16 16 17 17 17 17 18 18 18 19 19 19 19 20 20 21 21 22 22 22 23 23 23 23 24 24 24
18 18 18 18 18 18 17 18 18 18 19 19 19 19 20 20 21 21 22 22 22 23 23 23 23 24 24 25 25 25 26 26 26 26 27 27 27 27
20 20 21 20 20 20 20 20 20 20 20 21 21 22 23 23 24 24 25 25 25 26 26 27 27 27 27 28 28 29 29 29 29 29 29 30 30 30
22 22 22 22 22 22 22 22 22 22 22 22 23 24 25 26 27 28 28 28 29 29 30 30 31 31 32 32 31 31 32 32 32 32 32 32 33 33
23 23 24 24 24 23 23 24 25 25 25 25 26 26 26 27 28 29 30 31 32 33 33 33 33 34 34 34 34 35 35 35 36 36 36 36 36 37
24 24 24 24 25 25 26 26 26 27 27 28 28 29 29 30 31 32 33 34 34 35 35 35 36 36 37 37 38 38 38 38 39 39 39 40 40 40
25 25 24 25 26 27 27 27 29 30 31 31 31 32 32 33 34 35 35 36 37 38 38 39 39 40 40 41 41 41 42 42 42 42 42 42 43 42
26 26 25 26 27 27 28 29 30 31 32 33 33 34 35 36 37 37 38 39 39 40 42 41 43 43 43 44 44 44 45 45 45 45 45 45 45 45
26 26 27 28 29 29 30 31 32 33 34 35 35 35 36 38 39 39 40 40 40 41 43 42 43 44 45 46 47 47 48 49 49 49 49 49 49 49
27 28 29 29 30 31 33 33 34 35 36 36 37 38 39 41 42 42 42 43 43 44 45 45 45 46 47 48 50 50 51 52 52 52 52 52 52 52
28 29 31 32 33 33 34 35 36 37 38 39 40 41 42 44 44 45 45 46 45 46 47 48 48 49 50 50 51 52 53 53 53 53 53 54 54 54
30 31 33 34 35 35 36 37 38 39 40 41 42 43 44 44 46 47 47 48 49 49 49 51 52 52 52 51 52 53 53 53 53 54 54 55 55 55
32 34 35 37 36 37 38 39 40 40 42 43 44 45 46 46 47 48 49 50 51 52 52 53 53 53 54 52 51 52 53 53 53 54 55 55 56 56
34 35 36 37 38 39 40 40 41 42 43 44 45 46 47 48 49 51 52 53 53 54 54 54 54 54 54 53 52 53 54 54 54 53 54 54 54 55
33 35 37 39 40 40 41 42 43 44 45 46 47 47 49 50 51 52 53 54 54 54 54 54 55 55 55 54 53 53 54 54 54 53 52 53 52 53
35 37 39 40 41 42 44 45 46 47 47 48 48 49 50 51 51 52 53 53 53 53 54 54 54 54 54 53 53 52 53 53 52 52 52 52 51 51
36 38 40 41 42 44 46 47 47 48 49 49 49 49 50 51 51 51 51 52 52 51 52 52 52 52 52 52 51 51 51 51 50 50 50 49 49 49
38 40 42 44 44 45 46 47 47 48 49 49 49 50 50 50 51 51 51 51 50 50 50 50 50 50 50 50 50 50 49 48 47 46 46 45 44 44
38 39 40 41 43 44 45 45 46 47 47 48 48 48 49 49 49 50 50 50 50 49 49 49 49 48 48 47 47 48 47 46 44 43 42 41 40 40
39 40 41 41 41 41 42 43 44 45 46 46 46 47 47 47 47 47 47 46 45 45 45 44 44 43 44 43 42 41 41 40 39 39 38 38 37 37
40 40 40 41 40 40 41 41 42 42 42 42 42 42 42 42 42 41 41 40 40 40 40 40 40 39 39 38 37 36 35 35 35 35 35 34 34 33
40 40 40 40 40 40 40 40 40 39 39 39 39 39 38 38 37 37 37 37 37 36 36 36 36 35 34 33 33 32 31 31 32 32 32 31 30 29
39 39 38 38 38 38 38 38 38 38 37 37 37 36 36 34 34 33 33 33 33 32 32 32 31 30 30 31 30 29 29 29 29 29 29 29 27 26

GEFSNE_500_meanwind_150.txt.gz
Wind_Speed
20 19 19 18 17 17 18 18 18 18 18 19 19 20 20 21 22 22 22 22 23 23 23 24 24 24 24 25 26 26 27 27 27 27 27 27 28 28
21 20 20 20 19 19 19 19 20 20 20 21 22 23 23 24 24 25 25 26 26 27 27 28 28 28 28 29 29 30 31 31 31 31 31 31 31 31
23 23 22 22 22 21 21 21 22 22 22 23 24 24 25 26 27 28 28 28 29 30 30 31 31 32 33 33 33 34 34 34 34 34 34 34 34 34
25 25 25 25 24 24 24 24 24 24 24 25 26 26 26 27 28 28 28 29 30 31 32 33 34 35 36 36 36 37 38 38 38 38 38 38 38 38
27 27 27 26 26 26 26 26 27 27 27 28 28 29 29 29 29 30 30 31 32 34 35 36 36 37 38 38 39 40 41 41 41 41 42 42 42 42
27 28 28 28 28 29 28 29 29 30 30 30 30 31 32 32 32 33 34 34 35 36 37 38 39 40 40 41 42 42 43 44 44 45 45 45 45 45
28 28 28 29 29 30 31 32 32 32 32 32 32 33 34 35 36 36 36 37 38 39 39 40 42 43 43 44 45 46 46 46 47 47 48 48 48 48
28 29 30 31 31 32 32 32 33 34 34 34 35 36 37 38 39 39 39 39 40 41 42 43 44 45 46 47 48 48 49 49 50 50 51 51 52 51
29 30 31 31 32 33 33 34 35 36 37 38 38 39 40 40 41 40 41 42 43 44 45 45 46 48 49 50 50 51 51 51 52 52 53 54 55 55
30 30 31 31 32 33 35 35 36 37 38 39 40 41 41 41 42 43 43 44 45 46 48 48 49 50 51 52 52 53 54 55 55 55 55 56 55 55
30 31 31 31 33 33 34 36 38 39 40 41 42 43 44 44 45 46 46 47 47 48 49 50 51 52 52 53 55 56 56 57 57 58 58 57 56 56
30 30 31 32 33 35 36 37 37 39 40 42 43 44 44 45 47 48 49 49 50 51 52 54 55 56 55 55 56 57 58 58 59 58 58 58 58 58
29 29 30 32 33 34 36 37 39 40 41 43 45 46 46 48 49 50 51 53 54 55 56 57 57 58 59 58 58 58 59 58 58 58 59 58 58 58
28 29 31 32 34 35 37 39 41 43 44 45 47 48 49 50 52 53 54 55 56 57 58 59 59 59 59 60 59 59 58 58 58 57 57 57 57 57
31 32 33 34 35 37 38 41 42 43 45 47 48 50 51 52 53 54 55 56 57 57 58 58 58 58 57 58 58 57 56 55 55 55 55 55 55 55
32 32 34 35 37 38 40 42 43 45 47 48 49 50 52 52 53 54 54 55 55 55 55 55 54 54 54 54 54 53 52 52 52 52 52 52 53 53
33 34 35 37 39 40 42 43 44 46 47 48 49 49 49 49 50 52 53 53 53 52 52 51 51 51 51 51 51 51 51 51 51 50 50 49 49 49
34 36 37 39 40 40 41 42 43 44 45 46 46 46 47 47 48 49 49 49 49 49 50 49 49 49 49 50 51 51 51 50 49 49 47 45 43 42
35 36 38 39 40 40 41 41 42 42 43 44 44 45 45 45 46 46 46 47 47 46 46 46 47 47 46 46 46 47 47 46 45 44 42 39 38 38
36 38 39 40 41 41 41 42 42 42 43 43 43 43 43 43 43 43 43 44 43 42 42 42 42 42 42 41 40 39 40 40 38 37 36 35 34 34
38 39 40 40 41 42 42 42 42 42 41 41 41 41 41 41 42 41 40 40 39 39 38 38 38 38 38 37 36 35 35 35 34 33 32 31 31 31
39 40 41 41 42 42 42 42 41 40 40 39 40 40 40 40 39 39 38 38 37 37 36 36 36 35 35 34 33 33 32 32 32 31 29 28 27 27
39 40 40 40 41 40 40 40 40 40 40 40 40 39 39 38 38 37 37 37 36 35 34 34 33 32 32 31 31 30 30 29 29 28 27 27 26 25

GEFSNE_500_meanwind_156.txt.gz
Wind_Speed
20 20 20 19 19 19 19 19 19 18 19 18 18 19 20 20 20 20 21 22 22 23 23 24 24 25 25 25 25 26 27 27 28 28 28 28 29 29
22 22 22 22 21 21 22 21 21 21 22 21 21 21 21 21 22 22 23 24 25 26 27 27 27 28 29 29 29 29 29 30 31 31 31 31 32 32
24 24 24 24 23 23 23 23 23 23 23 24 23 23 23 24 25 26 26 27 27 28 29 29 30 31 31 31 32 32 33 33 34 34 34 35 35 35
25 25 26 26 26 26 26 26 26 26 25 26 26 26 27 27 28 29 29 29 30 30 31 32 33 33 33 34 34 35 36 36 37 37 37 38 38 38
26 26 27 27 28 28 28 28 29 28 28 28 29 30 31 31 32 32 33 33 34 34 35 35 35 35 35 36 36 37 38 38 39 39 39 40 40 41
27 28 28 28 29 29 30 30 30 31 31 32 32 33 33 34 34 34 34 34 35 36 37 37 37 38 38 38 39 39 40 40 41 41 42 43 43 44
27 28 29 30 31 30 30 31 31 31 32 33 33 34 35 35 35 36 37 37 37 38 39 40 40 40 41 42 43 43 44 44 44 45 45 46 47 48
27 28 28 29 29 31 32 32 32 32 33 33 34 34 35 35 36 37 38 39 40 40 41 41 42 42 43 44 44 45 46 47 47 47 48 49 50 50
27 27 27 28 30 31 32 32 32 33 34 34 35 35 37 38 38 39 40 41 41 42 42 43 44 45 46 47 47 47 48 49 50 50 51 51 52 52
24 26 27 28 30 30 30 31 32 33 34 35 36 37 39 39 40 41 41 42 43 43 45 46 47 48 49 50 50 50 52 53 53 54 54 54 55 55
24 25 27 28 30 31 31 32 33 34 35 36 37 38 39 40 42 42 42 43 45 46 47 48 49 51 52 53 54 54 55 56 56 57 58 58 59 58
25 26 27 29 30 30 32 33 34 35 36 37 38 39 40 41 42 43 44 45 47 48 49 50 51 52 53 53 54 54 55 56 57 57 58 58 59 59
25 26 28 29 30 31 32 34 35 36 37 38 40 41 42 43 44 44 45 47 48 49 50 51 51 52 52 51 51 51 52 53 53 53 54 54 55 56
26 27 28 29 30 32 34 35 36 36 38 39 40 41 42 43 45 46 47 48 49 50 50 49 49 49 50 51 51 50 51 51 52 52 52 52 52 52
27 28 29 30 32 33 34 35 36 37 38 40 41 42 43 44 45 46 47 48 49 49 48 48 48 49 49 50 50 49 50 50 50 50 50 50 50 50
28 29 31 32 34 35 36 36 38 39 40 41 42 43 44 45 46 47 48 48 48 48 47 47 46 47 47 47 47 48 48 49 49 49 48 48 48 49
29 31 32 33 35 36 37 38 39 40 42 42 43 44 44 45 44 45 45 45 45 45 45 45 45 44 45 45 45 46 46 46 46 45 44 44 43 43
31 32 33 34 35 36 38 39 40 41 42 44 43 43 43 43 43 42 42 42 43 42 42 43 43 43 43 43 43 44 43 43 42 41 40 40 40 39
33 34 36 37 37 39 40 41 41 42 43 43 43 42 42 42 41 41 41 41 41 41 41 41 42 42 42 42 42 42 41 39 39 38 38 37 36 35
35 36 37 37 39 39 40 40 41 41 41 41 41 41 40 40 40 40 41 41 41 41 42 42 42 41 40 40 39 39 39 37 36 35 35 34 34 34
35 36 37 37 38 38 38 39 40 40 40 40 40 40 40 40 40 41 41 41 41 41 41 40 40 39 39 38 37 36 36 36 34 33 33 32 32 32
35 35 36 36 36 37 38 38 39 39 40 39 39 39 39 40 40 40 40 40 39 39 38 38 37 36 36 36 35 34 33 32 31 30 29 29 29 28
34 35 35 36 37 37 38 38 38 38 38 38 38 38 38 38 38 38 37 37 37 36 36 35 35 34 33 33 32 31 29 29 29 28 28 28 27 26

GEFSNE_500_meanwind_162.txt.gz
Wind_Speed
19 19 19 19 19 19 19 19 19 18 18 19 19 19 19 19 19 20 20 21 22 22 23 23 23 24 24 25 25 26 27 28 28 28 28 27 27 28
20 20 20 21 21 21 21 21 21 21 21 22 21 21 21 21 21 22 22 23 24 25 26 26 26 27 28 28 29 30 31 31 31 31 30 31 31 31
22 22 22 23 23 22 22 23 23 23 24 24 24 24 24 24 24 24 25 25 26 27 28 28 29 30 31 31 32 33 33 34 34 33 33 34 34 34
23 23 23 23 24 24 24 24 25 25 25 25 26 26 26 27 27 27 27 28 29 30 31 31 32 33 33 34 34 34 34 34 34 35 35 36 36 36
23 24 24 24 25 25 25 26 27 27 27 28 29 29 28 28 29 29 29 30 31 31 31 32 32 33 34 34 34 35 36 36 36 36 37 38 38 38
24 24 25 25 25 25 26 27 28 28 29 29 29 29 29 30 30 30 31 31 32 33 33 33 34 35 35 35 35 37 38 38 39 39 39 40 41 41
24 24 24 25 25 26 26 27 28 28 29 29 29 30 30 30 30 31 32 33 34 35 35 34 36 36 36 36 37 38 39 40 41 41 42 42 43 43
23 24 24 26 25 25 25 26 28 28 28 28 29 30 30 31 32 32 33 34 35 36 37 37 39 39 39 39 38 40 42 42 43 43 44 45 46 47
25 25 25 25 25 26 26 26 27 27 28 29 30 31 32 32 33 34 35 36 37 38 39 39 39 40 40 40 41 42 43 44 45 46 48 49 50 50
24 25 25 26 26 25 25 26 27 28 28 30 31 32 33 34 35 35 36 36 37 38 39 40 40 41 42 42 43 44 46 48 49 49 50 51 51 52
22 23 23 23 23 23 25 26 27 28 29 31 32 33 34 34 35 36 37 39 40 40 41 42 43 43 44 45 46 47 47 48 48 49 49 50 50 50
23 23 23 22 23 24 25 27 28 29 30 31 32 33 33 35 36 37 39 41 42 43 44 44 45 45 45 46 47 47 46 46 47 47 48 48 47 48
23 24 24 24 24 25 26 28 29 30 32 33 33 34 35 36 38 40 41 42 44 45 46 46 45 45 46 45 45 45 46 46 46 46 46 47 47 48
24 24 25 25 26 26 28 29 30 31 32 33 34 36 38 39 40 41 42 44 45 45 45 45 45 45 45 44 44 44 46 46 46 45 46 46 46 46
25 25 26 26 27 28 30 31 32 33 34 35 36 38 39 40 41 42 42 43 44 44 44 44 44 44 44 44 44 44 44 44 44 43 43 43 43 43
26 26 27 28 29 31 31 32 33 34 35 36 37 39 40 41 41 42 43 43 43 43 43 43 42 42 43 43 43 43 43 42 41 41 41 41 42 42
27 28 29 31 32 33 33 34 34 35 36 37 38 39 40 41 42 42 42 42 42 42 42 42 42 42 42 42 42 42 41 41 40 40 40 40 40 40
28 29 30 32 33 33 34 35 35 36 37 38 39 40 40 41 41 41 41 41 41 41 41 41 41 42 42 42 41 41 40 39 39 38 39 39 38 37
30 31 32 32 33 34 35 36 37 37 38 38 39 40 40 40 40 40 40 40 40 41 41 41 40 40 40 39 39 39 38 38 37 37 37 37 35 34
31 31 32 33 34 34 35 36 36 37 37 38 39 39 40 40 40 39 39 39 40 40 39 39 39 38 38 38 37 37 37 37 36 36 35 34 34 34
31 32 33 33 34 35 36 36 36 37 38 38 38 39 39 39 38 38 38 38 38 38 38 38 37 37 37 36 36 35 35 35 35 34 33 32 32 31
32 32 33 33 34 34 35 36 36 37 37 37 37 37 37 37 37 37 37 36 36 36 36 36 36 35 35 34 34 33 32 31 31 31 30 29 28 27
32 33 33 34 34 35 35 35 36 36 36 36 36 36 36 36 36 36 35 35 35 34 34 34 34 33 32 31 30 29 28 28 27 26 26 26 26 25

GEFSNE_500_meanwind_168.txt.gz
Wind_Speed
18 18 18 18 18 18 18 19 19 20 19 20 20 20 20 20 21 22 22 22 23 23 24 24 25 25 25 25 26 27 28 28 29 29 30 30 31 31
19 19 20 20 20 20 20 20 20 20 21 22 22 22 22 22 23 24 24 24 25 25 25 26 27 28 28 29 29 30 31 31 32 32 32 33 33 34
20 21 21 21 21 21 22 22 22 22 22 23 24 24 25 24 24 25 26 27 27 28 28 29 29 29 30 31 31 32 32 33 34 34 34 34 35 36
22 22 23 23 23 24 24 24 23 23 23 24 25 25 26 27 27 27 28 28 29 29 29 30 30 31 31 32 33 34 34 34 35 35 36 36 37 38
23 23 23 24 24 24 25 26 26 25 25 26 27 28 28 28 29 29 29 29 29 29 29 30 30 31 31 32 33 34 34 35 36 37 38 39 39 39
22 23 24 25 25 26 26 26 26 26 26 26 27 28 28 29 28 28 28 29 29 29 30 31 32 32 33 34 35 36 36 37 38 38 39 40 42 43
22 24 25 25 26 26 26 26 26 27 27 27 27 28 29 29 29 29 30 31 31 32 33 33 33 34 36 36 37 38 39 40 41 41 42 43 44 45
21 23 23 24 25 26 26 26 26 26 27 28 28 29 29 29 29 30 32 33 33 34 35 36 37 37 37 38 39 39 41 42 43 44 44 45 46 47
21 21 22 23 23 24 26 26 26 27 28 28 28 29 30 30 30 31 32 34 35 36 37 38 38 39 40 41 42 43 43 44 45 46 47 48 48 48
19 20 21 23 23 24 24 25 26 27 28 27 27 28 29 30 31 32 34 35 36 36 37 38 39 40 42 43 44 45 45 46 47 47 48 49 49 49
19 20 21 22 21 22 23 24 25 25 25 26 28 29 30 32 33 34 35 37 38 39 41 41 41 42 44 44 45 47 47 47 48 48 48 48 49 49
21 21 21 20 20 21 22 23 23 24 25 27 29 30 32 33 33 35 37 38 39 40 41 42 43 44 45 46 47 47 48 48 47 48 48 48 49 50
21 21 21 21 22 22 23 24 25 26 27 29 31 32 33 34 35 36 38 39 40 41 42 44 45 46 46 46 47 47 47 47 47 48 48 49 49 50
23 23 23 23 24 24 25 26 27 28 29 30 32 33 35 36 37 38 39 40 41 42 43 44 45 45 46 46 45 45 46 47 47 47 48 48 49 49
24 24 25 25 26 27 27 28 29 30 31 31 33 34 36 36 37 38 39 40 41 42 43 43 44 45 44 44 44 45 45 45 46 46 46 46 46 46
24 25 26 26 27 28 28 29 30 32 32 33 34 34 35 35 36 36 38 39 40 41 42 42 42 42 42 43 43 43 43 43 43 44 44 45 45 44
25 26 26 27 28 29 30 30 31 32 32 33 33 34 34 35 35 36 37 38 39 39 40 41 41 41 41 41 41 41 41 42 42 43 43 43 44 43
26 26 27 28 29 29 30 31 31 32 33 33 34 34 34 35 35 36 37 38 38 39 39 39 39 40 40 39 39 40 40 41 41 41 41 40 40 40
26 27 28 28 29 30 31 31 32 33 33 34 34 34 34 35 36 36 37 38 38 38 38 38 38 38 38 38 38 39 38 38 38 38 38 37 37 37
27 28 29 30 30 31 32 32 33 33 34 34 35 35 35 36 36 37 37 37 37 37 37 37 36 36 36 36 36 37 36 36 35 34 34 33 33 32
29 29 30 30 31 32 32 33 34 34 35 35 35 36 36 36 36 37 37 37 37 36 36 35 35 35 35 35 35 34 33 32 32 31 31 30 30 29
30 31 31 31 32 33 34 35 35 36 36 36 36 36 36 37 37 36 36 35 35 35 34 34 33 33 33 32 32 31 30 30 29 29 29 28 27 26
30 31 31 32 33 34 35 36 36 36 36 36 36 36 36 36 36 35 34 34 34 33 32 32 31 31 31 30 29 29 29 28 28 28 28 27 26 26

GEFSNE_500_meanwind_174.txt.gz
Wind_Speed
20 20 20 21 21 21 21 21 21 21 22 22 22 23 23 23 24 25 24 24 24 25 25 26 26 27 28 28 29 30 30 31 31 31 31 31 31 32
21 21 21 22 22 22 22 23 24 24 23 24 24 24 25 25 25 26 27 27 27 27 28 29 29 30 30 30 31 32 32 32 33 33 34 34 35 35
21 21 22 23 24 24 25 25 25 25 25 26 27 27 27 27 27 28 29 29 29 29 30 31 31 32 32 32 32 32 33 33 33 34 35 35 35 35
21 22 23 24 25 26 26 27 27 27 27 27 28 29 29 29 28 29 29 30 31 31 32 33 34 34 33 33 33 34 33 33 34 35 36 36 36 36
21 22 24 25 25 26 26 27 27 27 28 28 29 30 30 30 30 31 31 31 32 32 33 33 34 34 34 34 35 34 35 35 36 37 38 39 39 39
22 23 24 24 25 25 26 26 27 28 29 30 29 30 31 32 32 31 32 33 33 33 34 35 35 35 35 35 35 36 38 39 39 40 40 40 41 41
22 23 24 25 25 25 25 26 27 28 29 29 30 30 31 31 31 31 32 33 34 34 36 36 36 37 37 37 38 39 40 40 41 42 43 43 44 45
22 22 22 23 25 25 26 26 27 28 30 31 31 31 30 31 31 32 33 34 34 35 36 37 37 38 38 39 40 41 42 42 43 44 45 46 47 47
21 22 22 23 24 24 25 27 28 29 30 32 30 30 31 32 32 33 34 35 35 36 37 38 39 39 40 41 42 43 43 43 44 45 46 47 48 48
22 23 23 24 24 24 25 25 26 27 28 29 30 30 32 32 33 34 35 36 37 37 38 39 40 40 41 42 44 44 45 46 47 48 49 49 50 51
23 24 24 24 24 25 25 25 26 27 27 28 29 30 30 31 32 33 35 36 36 37 38 39 39 40 41 43 44 46 47 48 48 49 49 50 50 50
23 24 24 25 26 26 27 27 27 28 29 29 30 31 31 32 33 35 36 37 38 38 39 40 40 42 42 44 45 47 48 49 49 49 49 49 49 49
24 25 26 27 27 27 27 28 29 30 31 31 32 33 34 34 35 36 37 38 38 39 39 40 40 41 42 43 45 47 48 47 47 48 48 48 48 49
25 26 27 27 28 28 29 30 30 31 32 32 33 34 34 35 36 36 36 37 38 38 38 39 39 40 41 42 44 45 46 45 45 46 46 47 47 48
26 26 27 28 28 28 29 30 31 31 32 33 33 34 34 35 35 36 36 36 37 38 38 38 39 40 41 42 42 43 43 43 44 44 44 44 45 45
26 27 28 29 29 30 30 31 31 31 31 32 33 33 34 35 35 36 36 36 37 37 38 38 38 39 40 41 41 42 42 42 42 43 43 43 43 43
27 28 29 29 30 30 31 31 31 31 32 32 33 34 34 35 35 35 36 36 37 37 38 38 39 39 39 39 39 40 40 40 40 40 40 39 39 38
28 29 29 30 30 30 31 31 32 32 33 33 34 35 35 35 35 36 36 37 37 38 38 38 38 39 39 38 37 37 37 37 37 37 37 36 36 35
29 29 30 31 31 31 31 32 32 33 33 33 34 34 35 36 36 37 37 38 38 38 38 37 37 36 36 35 36 36 35 35 34 34 34 33 32 32
29 30 31 31 32 32 32 33 33 33 33 34 35 36 36 37 38 38 38 38 38 38 37 36 35 35 34 34 34 34 34 34 33 33 32 31 31 31
30 31 31 31 32 32 33 33 34 34 34 35 36 37 38 38 38 38 38 38 37 36 36 35 34 34 34 34 33 33 33 32 32 31 31 30 30 29
30 30 31 31 31 32 33 34 34 35 36 36 37 37 37 37 37 37 37 36 36 35 35 34 34 33 33 32 32 32 32 31 31 30 30 29 29 28
30 30 31 31 32 33 33 34 35 35 35 36 36 36 35 35 35 34 34 34 34 33 33 33 32 32 32 32 31 31 30 30 29 29 29 28 28 28

GEFSNE_500_meanwind_180.txt.gz
Wind_Speed
19 19 20 20 20 20 21 21 21 22 22 23 24 24 24 24 24 24 23 23 24 24 25 27 28 28 28 28 28 29 29 30 30 31 31 31 31 31
19 20 21 21 21 21 22 23 23 23 24 25 25 26 26 26 25 25 25 25 26 27 27 28 28 29 30 30 31 31 32 32 33 33 33 33 33 32
20 21 21 21 22 23 23 23 24 25 25 26 27 27 28 28 28 28 28 28 30 30 30 30 31 31 33 33 33 33 33 34 34 34 34 35 34 35
21 21 21 22 22 23 23 24 24 25 25 26 26 27 28 29 29 28 29 30 31 31 32 33 34 35 35 35 36 36 35 35 34 34 35 35 36 37
21 21 22 22 23 23 24 24 24 25 26 27 28 27 27 28 28 29 31 31 32 33 33 33 34 35 36 36 36 35 34 35 35 35 36 36 37 38
21 22 23 24 25 25 25 25 26 26 27 28 28 27 28 28 29 31 32 33 34 34 34 34 35 35 36 36 36 36 35 36 36 37 37 38 38 39
21 21 22 23 23 24 24 26 26 27 27 28 28 28 29 30 31 32 32 32 33 33 34 34 35 36 36 35 35 36 36 37 37 38 38 39 40 40
22 22 22 23 24 25 25 25 26 26 27 27 27 28 30 31 32 32 32 32 32 32 33 33 34 35 35 35 35 36 36 37 37 38 40 41 42 43
21 22 23 24 24 25 25 25 25 26 28 28 28 29 31 32 33 32 32 33 33 33 34 34 35 36 36 36 37 37 38 38 40 40 41 43 43 44
23 23 24 24 25 25 26 26 27 27 28 28 28 29 30 31 32 33 33 34 33 33 34 34 35 36 36 37 37 38 38 39 41 41 42 43 43 44
24 24 24 25 25 25 26 26 27 28 28 28 29 29 30 31 32 33 33 33 33 34 35 35 36 36 37 37 38 39 40 40 40 41 41 42 42 43
24 24 25 25 26 27 27 27 27 27 28 28 29 29 30 31 32 33 34 34 34 35 35 36 36 37 37 38 39 40 40 40 40 41 41 42 43 44
25 25 26 26 27 27 27 27 27 28 28 29 29 30 31 32 33 34 34 34 34 35 35 35 36 36 37 37 38 39 39 40 40 41 42 42 43 44
25 26 27 27 27 28 28 28 29 29 30 30 31 32 33 33 33 33 33 33 33 34 34 34 35 35 36 37 37 38 39 39 40 40 41 41 41 42
25 26 26 27 27 28 29 29 30 30 31 32 32 33 33 33 33 33 34 34 34 34 34 34 35 35 36 36 37 38 38 38 38 39 39 39 39 39
26 26 26 27 28 29 30 31 31 32 32 32 33 33 33 33 33 33 34 34 34 34 34 35 35 35 35 36 36 36 36 36 37 36 36 36 37 37
27 27 28 29 29 30 31 31 31 32 32 32 33 33 33 33 33 33 33 34 34 35 35 35 35 35 35 35 35 35 35 35 35 34 34 34 34 34
27 28 29 30 31 31 31 31 32 32 32 32 32 32 32 33 33 34 35 35 35 35 35 35 35 35 35 35 35 35 35 34 34 33 33 33 33 33
28 29 30 30 30 31 31 32 32 32 32 32 32 33 34 34 34 35 35 35 35 35 35 35 35 35 35 35 34 34 34 34 33 33 33 32 32 32
29 29 30 30 31 31 31 31 31 32 32 32 33 33 34 34 34 35 35 35 35 35 35 35 35 34 34 34 34 33 33 33 32 32 31 31 31 31
29 30 30 31 31 31 31 32 32 32 33 33 33 34 34 34 34 34 34 34 33 34 34 34 33 33 32 32 31 31 31 31 31 31 31 31 31 31
29 30 31 31 31 31 32 32 33 33 33 33 34 34 34 34 34 33 33 32 32 32 32 32 31 31 30 29 29 29 29 29 29 29 29 30 30 30
29 30 31 31 32 32 33 33 34 34 33 34 34 33 33 33 32 32 32 32 31 31 30 29 29 29 29 28 28 28 28 28 28 28 27 28 28 28

GEFSNE_500_meanwind_186.txt.gz
Wind_Speed
18 18 18 19 19 19 19 19 20 20 21 22 22 22 21 21 22 22 23 23 23 24 24 25 25 25 26 26 27 28 29 29 30 31 31 31 31 32
18 18 18 19 19 19 19 20 20 21 21 22 23 23 24 23 23 24 25 25 25 25 26 27 28 28 29 29 31 31 32 33 33 33 33 33 33 33
18 18 18 19 19 19 20 21 21 22 22 23 23 23 24 24 24 25 26 26 27 27 28 28 30 31 31 31 31 32 33 33 33 33 33 34 34 34
18 18 18 19 20 21 21 21 22 23 23 23 23 25 25 25 26 27 27 27 28 28 28 29 31 32 31 32 33 33 34 34 35 35 35 34 34 35
18 18 19 19 20 21 21 22 23 24 24 24 24 24 25 26 27 27 28 28 29 30 30 31 32 32 32 33 34 35 36 36 36 35 35 35 35 36
18 19 19 19 20 22 22 23 24 24 25 25 25 26 26 27 26 27 27 28 29 30 31 31 32 32 32 33 34 35 35 35 35 35 36 36 36 37
18 19 19 20 21 23 24 25 25 25 26 26 26 27 27 27 28 28 28 29 30 31 31 31 31 32 32 32 32 32 33 34 35 36 37 37 37 37
19 20 21 21 22 23 23 24 25 25 26 27 27 28 28 28 28 29 29 29 30 30 31 31 31 32 32 33 33 34 34 34 35 36 37 38 38 38
20 21 22 23 23 24 25 25 26 26 27 27 28 28 28 27 28 29 29 30 31 31 31 31 31 32 33 34 34 35 35 36 36 36 37 38 38 39
21 22 23 24 25 25 26 27 27 27 28 28 28 28 28 28 28 29 30 30 31 32 33 33 33 34 34 34 34 34 35 35 36 37 38 38 39 40
23 23 24 25 26 26 27 28 28 29 29 28 28 29 29 29 29 30 30 31 32 33 34 34 34 34 34 34 34 34 35 36 36 37 38 39 39 40
24 25 26 26 27 27 28 28 29 29 29 29 29 30 30 31 32 32 33 33 34 34 34 35 34 34 34 34 34 34 35 35 36 36 37 38 38 39
25 26 26 27 27 28 28 28 29 29 30 30 31 31 32 32 33 34 35 35 35 35 35 35 34 34 34 33 33 34 34 35 35 35 36 36 37 37
25 26 27 27 27 28 28 30 31 31 32 33 33 34 34 34 35 35 35 35 35 35 35 35 35 35 36 36 35 35 36 36 36 36 36 36 36 36
27 27 27 28 28 29 30 31 32 33 34 34 35 35 35 35 35 35 35 35 35 34 34 35 35 35 36 36 36 35 35 35 36 36 35 34 35 35
27 28 28 29 29 30 31 32 32 33 34 35 35 35 36 36 35 34 34 34 34 34 34 34 34 35 35 35 35 35 35 35 35 35 34 34 34 35
28 28 29 29 30 31 32 33 34 34 34 35 36 36 36 35 35 35 35 35 34 35 35 35 35 35 35 35 34 34 34 34 34 33 33 33 33 33
29 29 30 30 32 33 33 34 34 35 35 36 36 35 35 35 35 36 35 35 36 36 35 35 35 35 35 34 34 34 33 33 33 32 33 32 32 32
30 30 31 32 33 33 34 34 35 35 35 35 35 35 35 36 36 36 36 36 36 36 35 34 34 33 33 32 32 32 32 31 31 31 32 32 32 31
31 31 32 33 33 33 34 34 35 35 35 35 35 35 36 36 36 36 36 36 35 34 33 32 32 32 31 31 30 30 29 29 29 30 30 31 31 31
31 32 32 33 33 33 34 34 35 35 35 35 35 35 36 36 36 35 35 34 33 32 31 31 30 30 30 30 29 29 28 28 28 29 29 29 29 30
32 32 32 32 33 33 33 34 34 35 35 35 35 35 35 35 34 34 33 32 31 30 29 29 28 28 28 28 28 28 28 28 28 28 28 29 28 28
32 32 32 32 33 33 33 34 34 34 34 34 33 33 33 33 32 32 31 30 29 28 27 27 26 27 27 27 26 26 26 26 26 26 27 27 27 27